Find Starlink 11177

NORAD ID: 60118 Int'l Des: 2024-118 Owner: SPXS Country: US Constellation: starlink operational
別名: STARLINK-11177 [DTC] celestrak
LEOCIRCULAR

現在のビュー

3D地球を読み込み中...

About Starlink 11177

Starlink 11177 (NORAD 60118) is a starlink constellation satellite (v2 mini d2c) launched Jun 24, 2024 by SPXS of US. It operates in LEO, CIRCULAR orbit with a mass of 960.00 kg.

次回通過

Passes for default location (London). Set your location on the main map for personalized predictions.

高度履歴

Loading altitude history...

軌道要素

1 60118U 24118F 26265.43277691 -.00000367 00000-0 18252-5 0 9992
2 60118 53.1593 331.4185 0000983 82.0510 278.0619 15.69703769128899
Epoch: Sep 22, 2026 • Age: 19 hours

現在のステータス

高度 365.0 km
遠地点 / 近地点 N/A
速度 7.70 km/s
衛星直下点 50.35°N, 3.86°E
打ち上げ日 Jun 24, 2024
運用期間 2.2 years
タイプ internet

技術仕様

分類 Payload
質量 960.00 kg
乾燥質量 910.00 kg
長さ 0.30 m
スパン 29.00 m
形状 ? Box + pan
製造者 SPXS
バスタイプ Starlink V2MD
フェーズステータス In Orbit
所有者/国 SPXS/US

Most Searched